Flag for Germany Weather past 2 weeks in Witzenhausen, Hesse, Germany

Now
30 °F

Passing clouds.


Feels Like: 30 °F
Forecast: 32 / 60 °F
Wind: 2 mph from West

Location: Fritzlar

Current Time: Apr 19, 2015 at 6:21:04 AM

Latest Report: Apr 19, 2015 at 5:00 AM


Visibility: 16 mi

Pressure: 30.25 "Hg

Humidity: 92%

Dew point: 28 °F

Location of WitzenhausenLocation

Historic Weather in Witzenhausen — Graph

°F

Witzenhausen temperature yesterday

Maximum temperature yesterday: 54 °F (at 6:00 PM)
Minimum temperature yesterday: 34 °F (at 7:00 AM)
Average temperature yesterday: 46 °F

Past Weeks' High & Low Weather Summary

 TemperatureHumidityPressure
High75 °F (Apr 15, 5:00 PM)97% (Apr 9, 8:00 AM)30.66 "Hg (Apr 9, 8:00 AM)
Low26 °F (Apr 7, 6:00 AM)28% (Apr 15, 3:00 PM)29.90 "Hg (Apr 15, 7:00 PM)
Average47 °F66%30.26 "Hg
* Reported Apr 4 4:00 AM — Apr 19 4:00 AM, Witzenhausen, Weather by CustomWeather, © 2015

Note: Actual official high and low records may vary slightly from our data, if they occured in-between our weather recording intervals... More about our weather records

Advertising

Witzenhausen weather history for previous 24 hours

 ConditionsComfort  
Time TempWeatherWind HumidityBarometerVisibility
4:00 AM
Sun, Apr 19
31 °FPassing clouds.1 mph89%30.26 "Hg19 mi
3:00 AM33 °FPassing clouds.2 mph84%30.27 "Hg19 mi
2:00 AM35 °FPassing clouds.2 mph79%30.28 "Hg19 mi
1:00 AM35 °FPassing clouds.2 mph79%30.29 "Hg19 mi
12:00 AM38 °FPassing clouds.3 mph71%30.29 "Hg22 mi
10:00 PM
Sat, Apr 18
42 °FPassing clouds.2 mph64%30.28 "Hg22 mi
9:00 PM49 °FPassing clouds.2 mph45%30.26 "Hg25 mi
8:00 PM52 °FPassing clouds.3 mph39%30.26 "Hg37 mi
7:00 PM53 °FPassing clouds.3 mph36%30.26 "Hg37 mi
6:00 PM54 °FPassing clouds.3 mph35%30.26 "Hg37 mi
5:00 PM53 °FPassing clouds.3 mph38%30.28 "Hg31 mi
4:00 PM53 °FPassing clouds.3 mph40%30.29 "Hg31 mi
3:00 PM51 °FPassing clouds.3 mph42%30.31 "Hg31 mi
2:00 PM51 °FScattered clouds.2 mph41%30.32 "Hg31 mi
1:00 PM49 °FScattered clouds.5 mph46%30.33 "Hg31 mi
12:00 PM48 °FScattered clouds.5 mph50%30.34 "Hg31 mi
11:00 AM46 °FScattered clouds.5 mph57%30.34 "Hg25 mi
10:00 AM46 °FPassing clouds.2 mph64%30.32 "Hg22 mi
9:00 AM43 °FPassing clouds.2 mph73%30.31 "Hg19 mi
8:00 AM40 °FPassing clouds.2 mph82%30.31 "Hg19 mi
7:00 AM34 °FPassing clouds.N/A82%30.29 "Hg19 mi
6:00 AM40 °FChilly.2 mph77%30.27 "Hg7 mi
Weather by CustomWeather, © 2015

See weather overviewHow to use our weather pages